SEEDS II (CO-66)

Last updated on Mon Nov 03 2025 00:03:21 GMT+0000 (Coordinated Universal Time)

1 32791U 08021J 25306.46545773 .00016363 00000+0 69156-3 0 9998 2 32791 97.7417 290.2906 0005427 52.2169 307.9558 15.23306459952663
UTC large
Height (km)
Speed (km/s)
/
Latitude / Longitude
Inclination (degrees)
Orbital Period (minutes)
Azimuth
Elevation
Range (km)
Doppler Factor

Next 0 passes for location: London (51.5072 / 0.1276)

Sorry there are no passes over London.